G1 CYXU-CYXU

Flight info

Callsign G1
Flight time 0h 16m
Altitude 3000
Route VFR SOUTHBOUND
Aircraft F35

Departure

Time 2026-05-07 23:21
Airport London International Airport (CYXU)

Arrival

Time 2026-05-07 23:37
Airport London International Airport (CYXU)
Time Latitude Longitude Altitude Speed Heading
2026-05-07 23:17 43.03566 -81.16274 908 ft 0 kts 73°
2026-05-07 23:17 43.03566 -81.16273 908 ft 0 kts 73°
2026-05-07 23:17 43.03565 -81.16271 908 ft 0 kts 73°
2026-05-07 23:18 43.03565 -81.16268 961 ft 1 kts 73°
2026-05-07 23:18 43.03566 -81.16259 1049 ft 3 kts 173°
2026-05-07 23:18 43.03563 -81.16254 1113 ft 1 kts 165°
2026-05-07 23:18 43.03553 -81.16234 1180 ft 25 kts 165°
2026-05-07 23:19 43.03029 -81.15978 1344 ft 97 kts 169°
2026-05-07 23:19 43.02194 -81.15710 1380 ft 157 kts 171°
2026-05-07 23:19 43.01142 -81.15387 1358 ft 156 kts 174°
2026-05-07 23:19 43.00079 -81.15146 1320 ft 154 kts 175°
2026-05-07 23:20 42.99021 -81.14905 1253 ft 155 kts 174°
2026-05-07 23:20 42.97971 -81.14661 1191 ft 154 kts 179°
2026-05-07 23:20 42.96914 -81.14544 1124 ft 153 kts 178°
2026-05-07 23:20 42.95859 -81.14406 1114 ft 152 kts 178°
2026-05-07 23:21 42.94789 -81.14252 1062 ft 156 kts 179°
2026-05-07 23:21 42.93722 -81.14119 1022 ft 146 kts 178°
2026-05-07 23:21 42.92900 -81.13963 1829 ft 134 kts 180°
2026-05-07 23:21 42.91869 -81.13797 1870 ft 155 kts 179°
2026-05-07 23:22 42.90795 -81.13631 1791 ft 153 kts 179°
2026-05-07 23:22 42.89730 -81.13476 1715 ft 154 kts 179°
2026-05-07 23:22 42.88694 -81.13339 1671 ft 145 kts 179°
2026-05-07 23:22 42.87706 -81.13199 1609 ft 137 kts 178°
2026-05-07 23:23 42.86599 -81.13066 1530 ft 199 kts 179°
2026-05-07 23:23 42.84813 -81.12920 1472 ft 355 kts 179°
2026-05-07 23:23 42.82234 -81.12790 1464 ft 366 kts 184°
2026-05-07 23:23 42.80113 -81.12731 1325 ft 270 kts 177°
2026-05-07 23:24 42.78260 -81.12335 1548 ft 253 kts 166°
2026-05-07 23:24 42.77541 -81.10926 1259 ft 121 kts 142°
2026-05-07 23:24 42.77477 -81.10528 1209 ft 1 kts 233°
2026-05-07 23:24 42.77468 -81.10528 1033 ft 5 kts 259°
2026-05-07 23:25 42.77499 -81.10550 999 ft 1 kts 168°
2026-05-07 23:25 42.77502 -81.10537 794 ft 0 kts 146°
2026-05-07 23:25 42.77502 -81.10536 778 ft 0 kts 146°
2026-05-07 23:26 42.77497 -81.10557 808 ft 16 kts 187°
2026-05-07 23:26 42.77534 -81.10593 995 ft 1 kts 334°
2026-05-07 23:27 42.77540 -81.10607 1307 ft 14 kts 334°
2026-05-07 23:27 42.78102 -81.10920 1298 ft 149 kts 334°
2026-05-07 23:27 42.79273 -81.11633 1225 ft 193 kts 334°
2026-05-07 23:28 42.80498 -81.12389 1161 ft 185 kts 334°
2026-05-07 23:28 42.81407 -81.12943 1095 ft 118 kts 334°
2026-05-07 23:28 42.82175 -81.13411 1032 ft 120 kts 334°
2026-05-07 23:28 42.82765 -81.14143 1050 ft 123 kts 316°
2026-05-07 23:29 42.83487 -81.14685 1182 ft 120 kts 299°
2026-05-07 23:29 42.83217 -81.15727 1162 ft 127 kts 229°
2026-05-07 23:29 42.82504 -81.16459 1095 ft 131 kts 214°
2026-05-07 23:29 42.82288 -81.17201 1286 ft 36 kts
2026-05-07 23:30 42.82317 -81.17198 1287 ft 0 kts
2026-05-07 23:30 42.82320 -81.17196 1293 ft 1 kts
2026-05-07 23:30 42.82323 -81.17196 1288 ft 0 kts
2026-05-07 23:30 42.82326 -81.17197 1292 ft 1 kts
2026-05-07 23:31 42.82342 -81.17172 1270 ft 20 kts 309°
2026-05-07 23:31 42.82378 -81.17137 1269 ft 0 kts 308°
2026-05-07 23:31 42.82392 -81.17163 1231 ft 1 kts 308°
2026-05-07 23:31 42.82394 -81.17166 1231 ft 0 kts 308°
2026-05-07 23:32 42.82782 -81.17398 1151 ft 132 kts 360°
2026-05-07 23:32 42.83955 -81.17132 1317 ft 193 kts
2026-05-07 23:32 42.85273 -81.16807 1421 ft 193 kts
2026-05-07 23:32 42.86650 -81.16466 1333 ft 255 kts
2026-05-07 23:33 42.88757 -81.15754 1779 ft 313 kts 12°
2026-05-07 23:33 42.90696 -81.15043 2150 ft 265 kts 12°
2026-05-07 23:33 42.92337 -81.14437 2335 ft 229 kts 10°
2026-05-07 23:33 42.93793 -81.13917 1936 ft 194 kts 10°
2026-05-07 23:34 42.94932 -81.13556 2012 ft 155 kts
2026-05-07 23:34 42.96117 -81.13353 1852 ft 187 kts
2026-05-07 23:34 42.97551 -81.13189 1777 ft 222 kts
2026-05-07 23:34 42.99096 -81.13077 1577 ft 205 kts 10°
2026-05-07 23:35 43.00395 -81.12652 1443 ft 165 kts
2026-05-07 23:35 43.01485 -81.12796 1037 ft 173 kts 326°
2026-05-07 23:35 43.02370 -81.13799 904 ft 155 kts 316°
2026-05-07 23:35 43.03114 -81.14692 932 ft 190 kts 317°
2026-05-07 23:36 43.04032 -81.15794 1074 ft 136 kts 317°
2026-05-07 23:36 43.04878 -81.15870 1042 ft 171 kts 37°
2026-05-07 23:36 43.04494 -81.14639 1103 ft 133 kts 137°
2026-05-07 23:36 43.03793 -81.13683 1114 ft 188 kts 137°
2026-05-07 23:37 43.03204 -81.12880 1220 ft 155 kts 136°
2026-05-07 23:37 43.02484 -81.12699 1199 ft 106 kts 239°
2026-05-07 23:37 43.02285 -81.13409 1030 ft 59 kts 271°
2026-05-07 23:37 43.02414 -81.13804 914 ft 47 kts 316°
2026-05-07 23:38 43.02726 -81.14182 924 ft 105 kts 315°
2026-05-07 23:38 43.03534 -81.15163 908 ft 191 kts 316°
2026-05-07 23:38 43.04523 -81.14964 1152 ft 188 kts 67°
2026-05-07 23:38 43.03703 -81.13475 1364 ft 214 kts 137°
2026-05-07 23:39 43.02592 -81.12147 1219 ft 214 kts 168°
2026-05-07 23:39 43.02010 -81.13133 1153 ft 140 kts 287°
2026-05-07 23:39 43.02577 -81.13983 899 ft 135 kts 315°
2026-05-07 23:39 43.03302 -81.14860 980 ft 179 kts 316°
2026-05-07 23:40 43.04339 -81.15749 1049 ft 187 kts 19°
2026-05-07 23:40 43.03999 -81.14469 1077 ft 148 kts 151°
2026-05-07 23:40 43.03166 -81.13426 1062 ft 203 kts 138°
2026-05-07 23:40 43.02239 -81.13467 1145 ft 142 kts 271°
2026-05-07 23:41 43.02728 -81.14187 904 ft 80 kts 317°
2026-05-07 23:41 43.03357 -81.14936 1003 ft 109 kts 317°
2026-05-07 23:41 43.03770 -81.15397 1014 ft 47 kts 316°
2026-05-07 23:41 43.03910 -81.15684 1009 ft 13 kts 273°
2026-05-07 23:42 43.03829 -81.15778 992 ft 19 kts 317°
2026-05-07 23:42 43.03799 -81.15827 992 ft 3 kts 309°
2026-05-07 23:42 43.03743 -81.15944 985 ft 15 kts 330°
2026-05-07 23:42 43.03687 -81.16056 986 ft 15 kts 323°
2026-05-07 23:43 43.03610 -81.16189 949 ft 9 kts 319°
2026-05-07 23:43 43.03605 -81.16211 915 ft 0 kts 350°
2026-05-07 23:54 43.03606 -81.16211 908 ft 1 kts 350°
2026-05-07 23:55 43.03610 -81.16207 908 ft 3 kts 353°
2026-05-07 23:55 43.03611 -81.16208 908 ft 0 kts 353°
2026-05-07 23:57 43.03618 -81.16209 908 ft 1 kts 347°
2026-05-07 23:57 43.03614 -81.16188 939 ft 1 kts 18°
2026-05-07 23:57 43.03616 -81.16185 1028 ft 0 kts 103°
2026-05-07 23:57 43.03542 -81.15739 1064 ft 64 kts 97°
2026-05-07 23:58 43.03917 -81.15588 1061 ft 59 kts 321°
2026-05-07 23:58 43.04354 -81.15527 1002 ft 122 kts 32°
2026-05-07 23:58 43.04714 -81.14703 1105 ft 72 kts 59°
2026-05-07 23:58 43.04832 -81.14245 1160 ft 39 kts 64°
2026-05-07 23:59 43.04694 -81.13803 1043 ft 56 kts 160°
2026-05-07 23:59 43.04448 -81.13629 1029 ft 1 kts 195°
2026-05-07 23:59 43.04358 -81.13595 1077 ft 24 kts 253°
2026-05-07 23:59 43.04236 -81.13533 1165 ft 4 kts 240°
2026-05-08 00:00 43.04210 -81.13517 1171 ft 23 kts 238°
2026-05-08 00:00 43.04129 -81.13440 1176 ft 1 kts 231°
2026-05-08 00:00 43.04094 -81.13372 1160 ft 22 kts 167°
2026-05-08 00:00 43.03598 -81.13078 1273 ft 83 kts 152°
2026-05-08 00:01 43.03145 -81.12513 1410 ft 137 kts 140°
2026-05-08 00:01 43.02591 -81.11761 1483 ft 80 kts 139°
2026-05-08 00:01 43.02155 -81.11363 1435 ft 118 kts 149°
2026-05-08 00:01 43.01340 -81.10856 1546 ft 161 kts 163°
2026-05-08 00:02 43.00192 -81.11249 1361 ft 200 kts 286°
2026-05-08 00:02 43.01210 -81.12643 1238 ft 218 kts 324°
2026-05-08 00:02 43.02430 -81.13854 912 ft 187 kts 317°
2026-05-08 00:02 43.03326 -81.14926 980 ft 159 kts 318°
2026-05-08 00:03 43.04070 -81.15795 990 ft 168 kts 316°
2026-05-08 00:03 43.05079 -81.16737 1006 ft 185 kts 351°
2026-05-08 00:03 43.05735 -81.15429 1405 ft 190 kts 84°
2026-05-08 00:03 43.04975 -81.13949 1443 ft 175 kts 142°
2026-05-08 00:04 43.04248 -81.13122 1355 ft 101 kts 142°
2026-05-08 00:04 43.03747 -81.12529 1283 ft 108 kts 142°
2026-05-08 00:04 43.02925 -81.11646 1260 ft 156 kts 153°
2026-05-08 00:04 43.02063 -81.11875 1377 ft 106 kts 236°
2026-05-08 00:05 43.01779 -81.12481 1351 ft 71 kts 251°
2026-05-08 00:05 43.01883 -81.13121 1164 ft 57 kts 304°
2026-05-08 00:05 43.02277 -81.13643 977 ft 81 kts 316°
2026-05-08 00:05 43.02770 -81.14249 906 ft 137 kts 317°
2026-05-08 00:06 43.03750 -81.15424 1009 ft 256 kts 316°
2026-05-08 00:06 43.05075 -81.17691 990 ft 346 kts 289°
2026-05-08 00:06 43.04920 -81.19567 1441 ft 194 kts 244°
2026-05-08 00:06 43.03876 -81.21047 2004 ft 245 kts 213°
2026-05-08 00:07 43.02066 -81.21946 2303 ft 319 kts 187°
2026-05-08 00:07 42.99602 -81.22027 2305 ft 392 kts 182°
2026-05-08 00:07 42.96644 -81.22033 2288 ft 453 kts 182°
2026-05-08 00:07 42.93351 -81.22103 2420 ft 492 kts 183°
2026-05-08 00:08 42.89839 -81.22177 2157 ft 526 kts 182°
2026-05-08 00:08 42.86133 -81.22239 2269 ft 535 kts 182°
2026-05-08 00:08 42.83578 -81.21946 5766 ft 157 kts 100°
2026-05-08 00:08 42.82908 -81.20242 3964 ft 294 kts 122°
2026-05-08 00:09 42.81623 -81.17262 2085 ft 338 kts 122°
2026-05-08 00:09 42.80200 -81.14083 1701 ft 433 kts 122°
2026-05-08 00:09 42.78451 -81.10430 1746 ft 484 kts 124°
2026-05-08 00:09 42.76445 -81.06539 1787 ft 519 kts 126°
2026-05-08 00:10 42.74223 -81.02524 1825 ft 541 kts 128°
2026-05-08 00:10 42.71839 -80.98488 1872 ft 554 kts 130°
2026-05-08 00:10 42.69327 -80.94478 1918 ft 559 kts 131°
2026-05-08 00:10 42.66875 -80.90379 764 ft 566 kts 115°
2026-05-08 00:11 42.67132 -80.85751 796 ft 556 kts 10°
2026-05-08 00:11 42.67632 -80.89265 741 ft 579 kts 229°
2026-05-08 00:11 42.66761 -80.90666 679 ft 0 kts 126°
2026-05-08 00:12 42.66718 -80.90632 753 ft 47 kts 145°
2026-05-08 00:12 42.65945 -80.89920 1127 ft 228 kts 152°
2026-05-08 00:12 42.63893 -80.88744 1850 ft 413 kts 163°
2026-05-08 00:12 42.61587 -80.88100 632 ft 62 kts 212°
2026-05-08 00:13 42.60932 -80.88167 653 ft 154 kts 191°
2026-05-08 00:13 42.59122 -80.88677 955 ft 380 kts 193°
2026-05-08 00:13 42.56332 -80.88917 992 ft 529 kts 158°